Location: Castillon
(43.1358°N, 0.8654°E)
Time: 19:47:23
(UTC+00:00)

S3M - Pass Details

Date: 24 January 2021
Orbit: 949 x 1004 km, 83.0° (Epoch: 28 February)

Event Time Altitude Azimuth Distance (km) Brightness Sun altitude
Rises 19:48:54 0° 349° (N) 3,633 7.1 -31.0°
Reaches altitude 10° 19:51:24 10° 347° (NNW) 2,682 6.4 -31.4°
Enters shadow 19:57:18 67° 278° (W) 1,024 4.1 -32.5°
